N-STAR C

Last updated on Sun Aug 02 2020 05:30:02 GMT+0000 (Coordinated Universal Time)

1 27461U 02035B 20214.57584148 -.00000162 00000-0 00000-0 0 9991 2 27461 6.7319 58.6840 0008070 163.1924 46.0974 0.98952399 66208
UTC large
Height (km)
Speed (km/s)
/
Latitude / Longitude
Inclination (degrees)
Orbital Period (minutes)
Azimuth
Elevation
Range (km)
Doppler Factor

Next 0 passes for location: London (51.5072 / 0.1276)

Sorry there are no passes over London.